Terminal Aerodrome Forecast
Issued by NWS

Home | Current Version | Previous Version | Text Only | Print | Product List | Glossary On
Versions: 1 2 3 4 5 6 7 8 9 10 11 12 13 14 15 16 17 18 19 20 21 22 23 24 25 26 27 28 29 30 31 32 33 34 35 36 37 38 39 40 41 42 43 44 45 46 47 48 49 50
000
FTUS45 KVEF 282300
TAFLAS
TAF
KLAS 282333Z 0100/0124 21020G30KT P6SM FEW070
     FM010200 21015G22KT P6SM FEW070
     FM010500 21012KT P6SM SCT070
     FM011000 21010KT P6SM SCT070 BKN100
     FM011500 20007KT P6SM BKN070=

USA.gov is the U.S. government's official web portal to all federal, state and local government web resources and services.